#timestamp,LO_Frequency,Hit,StdDev 
1603395895.1,286047030.3,P
1603395915.9,286047030.1,P
1603395935.7,286047031.9,P
1603395955.6,286047034.5,Y
1603395975.4,286047003.6,P
1603395995.2,286047004.1,N
1603396015.1,286047004.1,N
1603396016.0,286047004.1,N
1603396035.8,286047004.8,N
1603396055.7,286047004.9,N
1603396075.5,286047005.4,N
1603396095.3,286047006.0,N
1603396115.2,286047004.2,N
1603396135.0,286047004.1,N
1603396135.9,286047004.1,N
1603396155.7,286047004.0,N
1603396175.6,286047003.5,N
1603396195.4,286047006.0,N
1603396215.3,286047004.2,N
1603396235.1,286047003.0,N
1603396236.0,286047003.0,N
1603396255.8,286047005.9,N
1603396275.7,286047005.8,N
1603396295.5,286047004.7,N
1603396315.3,286047004.5,N
1603396335.2,286047005.4,N
1603396355.0,286047005.5,N
1603396355.9,286047005.5,N
1603396375.8,286047003.7,N
1603396395.6,286047003.6,N
1603396415.4,286047003.7,N
1603396435.3,286047001.5,N
1603396455.1,286046999.9,N
1603396475.8,286047002.3,N
1603396495.7,286047000.1,N
1603396515.5,286047003.1,N
1603396535.4,286047003.2,N
1603396555.2,286047006.0,Y
1603396575.0,286047001.2,P
1603396575.9,286047001.2,N
1603396595.8,286046998.7,N
1603396615.6,286046997.0,N
1603396635.4,286046999.0,N
1603396655.3,286047000.6,N
1603396675.1,286046998.6,N
1603396695.9,286047001.1,N
1603396715.7,286047000.8,N
1603396735.5,286047000.6,N
1603396755.4,286047000.3,N
1603396775.2,286046998.4,N
1603396795.0,286046998.6,N
1603396795.9,286046998.6,N
